IZ2XCK-13 Weather Reports


time (UTC)temp
C
wind
direction
speed
KPH
gust
KPH
rain 1hr
cm
rain 24hr
cm
rain mn
cm
humidity
%
barometer
mb
20260505054518 12 0.0 0.0 0.00 0.00 0.00 58 1014.3
20260505052518 13 0.0 0.0 0.00 0.00 0.00 50 1013.8
20260505050517 14 0.0 0.0 0.00 0.00 0.00 52 1013.8
20260505040517 14 0.0 0.0 0.00 0.00 0.00 47 1014.0
20260505034516 14 0.0 0.0 0.00 0.00 0.00 48 1013.9
20260505032516 13 0.0 0.0 0.00 0.00 0.00 50 1013.7
20260505030516 13 0.0 0.0 0.00 0.00 0.00 49 1014.7
20260505024515 13 0.0 0.0 0.00 0.00 0.00 50 1014.8
20260505022515 13 0.0 0.0 0.00 0.00 0.00 49 1014.8
20260505020515 13 0.0 0.0 0.00 0.00 0.00 50 1014.9
20260505014515 13 0.0 0.0 0.00 0.00 0.00 50 1015.2
20260505012514 13 0.0 0.0 0.00 0.00 0.00 50 1015.7
20260505010514 13 0.0 0.0 0.00 0.00 0.00 51 1016.1
20260505004513 13 0.0 0.0 0.00 0.00 0.00 50 1016.5
20260505002513 13 0.0 0.0 0.00 0.00 0.00 49 1016.7
20260505000513 14 0.0 0.0 0.00 0.00 0.00 49 1016.8
20260504234513 14 0.0 0.0 0.00 0.00 0.00 47 1016.9
20260504232512 14 0.0 0.0 0.00 0.00 0.00 48 1017.2
20260504230512 14 0.0 0.0 0.00 0.00 0.00 49 1017.5
20260504224512 14 0.0 0.0 0.00 0.00 0.00 49 1017.6
20260504222511 14 0.0 0.0 0.00 0.00 0.00 47 1017.7
20260504220511 15 0.0 0.0 0.00 0.00 0.00 45 1017.8
20260504214511 15 0.0 0.0 0.00 0.00 0.00 47 1018.0
20260504212510 16 0.0 0.0 0.00 0.00 0.00 43 1018.1
20260504210510 15 0.0 0.0 0.00 0.00 0.00 45 1018.2
20260504204510 16 0.0 0.0 0.00 0.00 0.00 43 1018.2
20260504202510 16 0.0 0.0 0.00 0.00 0.00 43 1018.1
20260504200509 16 0.0 0.0 0.00 0.00 0.00 43 1018.0
20260504194509 16 0.0 0.0 0.00 0.00 0.00 43 1018.0
20260504192508 17 0.0 0.0 0.00 0.00 0.00 42 1017.8
20260504190508 17 0.0 0.0 0.00 0.00 0.00 40 1017.7
20260504184508 18 0.0 0.0 0.00 0.00 0.00 41 1017.6
20260504182508 17 0.0 0.0 0.00 0.00 0.00 39 1017.6
20260504180507 18 0.0 0.0 0.00 0.00 0.00 38 1017.5
20260504174507 18 0.0 0.0 0.00 0.00 0.00 37 1017.3
20260504172507 18 0.0 0.0 0.00 0.00 0.00 37 1017.2
20260504170506 19 0.0 0.0 0.00 0.00 0.00 38 1017.2
20260504150505 21 0.0 0.0 0.00 0.00 0.00 35 1017.0
20260504140503 21 0.0 0.0 0.00 0.00 0.00 34 1017.6
20260504130503 22 0.0 0.0 0.00 0.00 0.00 32 1017.5
20260504110501 21 0.0 0.0 0.00 0.00 0.00 35 1018.5
20260504100500 19 0.0 0.0 0.00 0.00 0.00 39 1019.0
20260504080458 17 0.0 0.0 0.00 0.00 0.00 42 1019.2